Delta Virtual Airport Information Service

Los Angeles International Airport

ICAO: KLAX Country: United States
Latitude: 33.9425 Longitude: -118.407
Latest Arrival : DALJUMP (PHLI-KLAX) Latest Departure : DAL1108 (B) (KLAX-KJFK)


WX CaptureLIVE
Data provided by noaa.gov | Fetched at 07:34:47

METAR : KLAX 061253Z 19004KT 10SM FEW010 11/09 A3004 RMK AO2 SLP170 T01110094 $

TAF : KLAX 061126Z 0612/0718 VRB03KT P6SM SKC FM061500 VRB03KT P6SM BKN012 FM061700 25007KT P6SM SCT200 FM062100 26014KT P6SM SCT200 FM070500 26007KT P6SM OVC015 FM070900 VRB03KT P6SM OVC015 FM071400 12005KT P6SM OVC022


Runway Data for KLAX
Data provided by openaviationdata.com

Runway ID Mag Var Hdg Length Elevation Surface ILS Freq ILS Id ILS Slope
06L 13 69° 8916 ft 126 ft Concrete 108.5 IUWU 3
06R 13 69° 10274 ft 126 ft Concrete 111.7 IGPE 3
07L 13 69° 12078 ft 126 ft Concrete 111.1 IIAS 3
07R 13 69° 11084 ft 126 ft Concrete 109.9 IMKZ 3
24L 13 249° 10274 ft 126 ft Concrete 111.7 IHQB 3
24R 13 249° 8916 ft 126 ft Concrete 108.5 IOSS 3
25L 13 249° 11084 ft 126 ft Concrete 109.9 ILAX 3
25R 13 249° 12078 ft 126 ft Concrete 111.1 ICFN 3

Los Angeles International Airport, United States
Use only for reference purposes



Not for navigational purposes.